TimeCST,TemperatureF,Dew PointF,Humidity,Sea Level PressureIn,VisibilityMPH,Wind Direction,Wind SpeedMPH,Gust SpeedMPH,PrecipitationIn,Events,Conditions,WindDirDegrees,DateUTC
12:56 AM,44.1,39.9,85,30.27,10.0,Calm,Calm,-,N/A,,Clear,0,2012-11-11 06:56:00
1:56 AM,42.1,37.9,85,30.26,10.0,Calm,Calm,-,N/A,,Clear,0,2012-11-11 07:56:00
2:56 AM,44.1,39.9,85,30.24,10.0,Calm,Calm,-,N/A,,Clear,0,2012-11-11 08:56:00
3:56 AM,45.0,39.9,82,30.25,10.0,Calm,Calm,-,N/A,,Clear,0,2012-11-11 09:56:00
4:56 AM,48.0,41.0,77,30.28,10.0,SE,3.5,-,N/A,,Clear,130,2012-11-11 10:56:00
5:56 AM,46.0,39.9,79,30.28,10.0,ESE,4.6,-,N/A,,Clear,120,2012-11-11 11:56:00
6:56 AM,48.0,41.0,77,30.29,10.0,ESE,4.6,-,N/A,,Clear,110,2012-11-11 12:56:00
8:56 AM,62.1,51.1,67,30.33,10.0,ESE,8.1,-,N/A,,Scattered Clouds,120,2012-11-11 14:56:00
9:56 AM,69.1,51.1,53,30.32,10.0,SE,8.1,18.4,N/A,,Clear,140,2012-11-11 15:56:00
10:56 AM,71.1,51.1,49,30.30,10.0,SSE,10.4,17.3,N/A,,Clear,150,2012-11-11 16:56:00
11:56 AM,73.9,52.0,46,30.26,10.0,ESE,11.5,16.1,N/A,,Clear,120,2012-11-11 17:56:00
12:56 PM,73.9,51.1,45,30.24,10.0,SE,10.4,18.4,N/A,,Clear,130,2012-11-11 18:56:00
1:56 PM,75.9,51.1,42,30.23,10.0,ESE,11.5,18.4,N/A,,Overcast,120,2012-11-11 19:56:00
2:56 PM,73.0,51.1,46,30.22,10.0,SSE,10.4,17.3,N/A,,Clear,150,2012-11-11 20:56:00
3:56 PM,72.0,51.1,48,30.22,10.0,SE,10.4,17.3,N/A,,Partly Cloudy,140,2012-11-11 21:56:00
4:56 PM,68.0,51.1,55,30.21,10.0,SE,4.6,-,N/A,,Clear,130,2012-11-11 22:56:00
5:56 PM,66.0,52.0,60,30.23,10.0,Calm,Calm,-,N/A,,Clear,0,2012-11-11 23:56:00
6:45 PM,-9999,-9999,N/A,-9999,-9999.0,North,-9999.0,-,N/A,Hail,Hail,0,2012-11-12 00:45:00
6:56 PM,60.1,52.0,75,30.23,10.0,Calm,Calm,-,N/A,,Clear,0,2012-11-12 00:56:00
7:56 PM,57.9,52.0,81,30.25,10.0,Calm,Calm,-,N/A,,Clear,0,2012-11-12 01:56:00
8:56 PM,55.0,51.1,86,30.24,10.0,Calm,Calm,-,N/A,,Clear,0,2012-11-12 02:56:00
9:56 PM,55.0,50.0,83,30.24,10.0,Calm,Calm,-,N/A,,Clear,0,2012-11-12 03:56:00
10:56 PM,53.1,50.0,89,30.23,10.0,Calm,Calm,-,N/A,,Clear,0,2012-11-12 04:56:00
11:56 PM,57.0,51.1,81,30.20,10.0,SE,3.5,-,N/A,,Mostly Cloudy,140,2012-11-12 05:56:00